Regional Weather Roundup
Issued by NWS

Home | Current Version | Previous Version | Text Only | Print | Product List | Glossary Off
Versions: 1 2 3 4 5 6 7 8 9 10 11 12 13 14 15 16 17 18 19 20 21 22 23 24 25 26 27 28 29 30 31 32 33 34 35 36 37 38 39 40 41 42 43 44 45 46 47 48 49 50

000
ASUS43 KLSX 191457
RWRMO

WEATHER SUMMARY FOR MISSOURI
NATIONAL WEATHER SERVICE SPRINGFIELD MO
1000 AM CDT TUE SEP 19 2017

NOTE: "FAIR" INDICATES FEW OR NO CLOUDS BELOW 12,000 FEET WITH NO
       SIGNIFICANT WEATHER AND/OR OBSTRUCTIONS TO VISIBILITY.
       CURRENT SKY AND/OR WEATHER CONDITIONS ARE NOT AVAILABLE FOR
       CHILLICOTHE AND FARMINGTON.

MOZ001>031-035>038-043-044-053-054-191600-
...NORTHERN AND WESTERN MISSOURI...

CITY           SKY/WX    TMP DP  RH WIND       PRES   REMARKS
KANSAS CTY INT PTSUNNY   74  69  85 SE15      29.90S
LEE`S SUMMIT   SUNNY     74  69  85 SE13      29.92S
ST JOSEPH      MOSUNNY   74  69  85 S9        29.88S
CHILLICOTHE      N/A     68  68 100 S6        29.94R

$$
MOZ066>068-077>081-088>096-101>105-191600-
...SOUTHWEST MISSOURI...

CITY           SKY/WX    TMP DP  RH WIND       PRES   REMARKS
SPRINGFIELD    MOSUNNY   77  69  76 S8        29.96R
JOPLIN         SUNNY     79  71  76 S10       29.93S
BRANSON        MOSUNNY   77  68  73 SE7       29.99R

$$
MOZ032>034-039>042-045>050-055>058-069>072-191600-
...CENTRAL MISSOURI...

CITY           SKY/WX    TMP DP  RH WIND       PRES   REMARKS
COLUMBIA       FOG       70  70 100 S5        29.96S VSB 3/4
JEFFERSON CITY CLOUDY    68  67  96 SE6       29.95F FOG
ROLLA          MOSUNNY   75  71  87 SW7       29.99R
SEDALIA        CLOUDY    72  71  97 S3        29.96R
WARRENSBURG    MOSUNNY   66  64  94 SE5       29.93S

$$
MOZ051-052-059>065-191600-
...EAST CENTRAL MISSOURI...

CITY           SKY/WX    TMP DP  RH WIND       PRES   REMARKS
ST LOUIS INTL  MOSUNNY   75  70  84 CALM      29.98R
ST CHARLES     CLOUDY    70  70 100 CALM      29.97S

$$
MOZ072>076-082>087-097>100-106>115-191600-
...SOUTH CENTRAL AND SOUTHEAST MISSOURI...

CITY           SKY/WX    TMP DP  RH WIND       PRES   REMARKS
CAPE GIRARDEAU SUNNY     76  69  79 CALM      29.98R
POPLAR BLUFF   SUNNY     78  71  79 SW5       29.97R
WEST PLAINS    SUNNY     76  69  79 CALM      30.01R

$$



USA.gov is the U.S. government's official web portal to all federal, state and local government web resources and services.